Hourly Data Report for September 06, 2017

All times are specified in Local Standard Time (LST). Add 1 hour to adjust for Daylight Saving Time where and when it is observed.

ST. JOHN'S INTL A
NEWFOUNDLAND

47°37'07.000" N
52°45'09.000" W
140.50 m
8403505
71801
YYT

Download Data

Hourly Data (September 2017)
Hourly Data Report for September 6, 2017
Temp Definition
°C
Dew Point Temp Definition
°C
Rel Hum Definition
%
Wind Dir Definition
10's deg

Wind Spd Definition
km/h
Visibility Definition
km
Stn Press Definition
kPa
Hmdx Definition


Wind Chill Definition


Weather Definition


TIME
00:30 Legend Double Dagger 16.8 14.2 85 25 40 24.1 100.13     LegendNANA
01:30 Legend Double Dagger 16.4 14.1 86 25 48 24.1 100.18     LegendNANA
02:30 Legend Double Dagger 16.5 13.9 85 25 35 24.1 100.23     Clear
03:30 Legend Double Dagger 17.0 14.9 87 24 35 24.1 100.26     LegendNANA
04:30 Legend Double Dagger 16.8 15.0 89 24 34 24.1 100.29     LegendNANA
05:30 Legend Double Dagger 17.0 15.2 89 25 35 24.1 100.36     Mainly Clear
06:30 Legend Double Dagger 17.4 15.5 89 24 29 24.1 100.42     LegendNANA
07:30 Legend Double Dagger 18.2 15.7 85 25 27 24.1 100.47     LegendNANA
08:30 Legend Double Dagger 19.7 16.3 81 25 36 24.1 100.53     Mostly Cloudy
09:30 Legend Double Dagger 19.9 16.7 82 25 23 24.1 100.58     LegendNANA
10:30 Legend Double Dagger 20.3 17.3 82 25 28 24.1 100.62 26   LegendNANA
11:30 Legend Double Dagger 21.8 17.8 78 25 34 24.1 100.66 28   Mostly Cloudy
12:30 Legend Double Dagger 22.4 17.2 72 25 38 24.1 100.69 28   LegendNANA
13:30 Legend Double Dagger 22.7 16.9 69 25 34 24.1 100.69 28   LegendNANA
14:30 Legend Double Dagger 22.3 17.4 74 25 29 24.1 100.69 28   Mostly Cloudy
15:30 Legend Double Dagger 23.4 17.1 67 25 31 24.1 100.70 29   LegendNANA
16:30 Legend Double Dagger 22.9 16.3 66 25 33 24.1 100.75 28   LegendNANA
17:30 Legend Double Dagger 21.8 15.8 68 25 23 24.1 100.78 26   Mainly Clear
18:30 Legend Double Dagger 19.8 15.5 76 24 14 24.1 100.83     LegendNANA
19:30 Legend Double Dagger 18.0 14.6 80 21 14 24.1 100.90     LegendNANA
20:30 Legend Double Dagger 17.8 13.9 78 23 20 24.1 100.93     Clear
21:30 Legend Double Dagger 17.2 14.0 81 24 21 24.1 100.97     LegendNANA
22:30 Legend Double Dagger 17.0 15.4 90 25 16 24.1 100.99     LegendNANA
23:30 Legend Double Dagger 17.6 15.9 90 23 15 24.1 100.99     Mainly Clear

Notes on Data Quality.

Legend

  • E = Estimated
  • M = Missing
  • NA = Not Available
  • ‡ = Partner data that is not subject to review by the National Climate Archives
Date modified: